Istanbul, Turkey

4:46 PM +03 on June 24, 2018 (GMT +0300)
Ataturk

Weather History for LTBA - September, 2017

Change the Weather History Date:

Thursday, September 14, 2017

  Actual Average Record
Temperature  
Mean Temperature 80 °F -  
Max Temperature 88 °F 70 °F 88 °F (2017)
Min Temperature 73 °F 58 °F 55 °F (2004)
Cooling Degree Days 16    
Growing Degree Days 30 (Base 50)    
Moisture  
Dew Point 59 °F    
Average Humidity 51    
Maximum Humidity 78    
Minimum Humidity 15    
Precipitation  
Precipitation 0.00 in - - ()
Sea Level Pressure  
Sea Level Pressure 29.98 in    
Wind  
Wind Speed 11 mph ()    
Max Wind Speed 20 mph    
Max Gust Speed 30 mph    
Visibility 6.1 miles    
Events      
Averages and records for this station are not official NWS values.
T = Trace of Precipitation, MM = Missing Value Source: Averaged Metar Reports

Daily Weather History Graph

Daily Weather History Graph

Search for Another Location

Airport or City:

Astronomy

Sep. 14, 2017 Rise Set
Actual Time 6:44 AM +03 7:15 PM +03
Civil Twilight 6:16 AM +03 7:43 PM +03
Nautical Twilight 5:44 AM +03 8:15 PM +03
Astronomical Twilight 5:10 AM +03 8:49 PM +03
Moon 12:20 AM +03 (9/14) 3:15 PM +03 (9/14)
Length of Visible Light 13h 26m
Length of Day
12h 31m
Last Quarter, 38% of the Moon is Illuminated
Sep 14
Last Quarter
Sep 20
New
Sep 28
First Quarter
Oct 5
Full
Oct 12
Last Quarter

Hourly Weather History & Observations

Time (+03) Temp. Heat Index Dew Point Humidity Pressure Visibility Wind Dir Wind Speed Gust Speed Precip Events Conditions
12:00 AM 77 °F - 65 °F 59% 30.01 in 6 mi NNE 9.2 mph - -  
12:20 AM 77.0 °F - 66.2 °F 69% 30.01 in - NNE 11.5 mph - N/A   Clear
12:50 AM 77.0 °F - 68.0 °F 74% 30.01 in - NNE 9.2 mph - N/A   Clear
1:20 AM 77.0 °F - 66.2 °F 69% 30.01 in - NE 10.4 mph - N/A   Clear
1:50 AM 77.0 °F - 66.2 °F 69% 30.01 in - NE 9.2 mph - N/A   Clear
2:20 AM 77.0 °F - 64.4 °F 65% 30.01 in - NE 6.9 mph - N/A   Clear
2:50 AM 77.0 °F - 64.4 °F 65% 30.01 in - NE 5.8 mph - N/A   Clear
3:00 AM 76 °F - 64 °F 59% 30.02 in 6 mi NE 5.8 mph - -  
3:20 AM 77.0 °F - 64.4 °F 65% 30.01 in - NNE 5.8 mph - N/A   Clear
3:50 AM 75.2 °F - 62.6 °F 65% 30.01 in - NE 5.8 mph - N/A   Clear
4:20 AM 75.2 °F - 62.6 °F 65% 30.01 in - North 6.9 mph - N/A   Clear
4:50 AM 75.2 °F - 66.2 °F 73% 30.04 in - NNE 9.2 mph - N/A   Clear
5:20 AM 75.2 °F - 68.0 °F 78% 30.04 in - NNE 10.4 mph - N/A   Clear
5:50 AM 75.2 °F - 66.2 °F 73% 30.01 in - NNE 10.4 mph - N/A   Clear
6:00 AM 75 °F - 67 °F 69% 30.03 in 7 mi NNE 10.4 mph - -  
6:20 AM 75.2 °F - 66.2 °F 73% 30.04 in - NNE 8.1 mph - N/A   Clear
6:50 AM 75.2 °F - 64.4 °F 69% 30.04 in - NNE 9.2 mph - N/A   Clear
7:20 AM 77.0 °F - 66.2 °F 69% 30.04 in - NE 8.1 mph - N/A   Clear
7:50 AM 77.0 °F - 64.4 °F 65% 30.04 in - NE 11.5 mph - N/A   Clear
8:20 AM 78.8 °F - 64.4 °F 61% 30.04 in - NE 12.7 mph - N/A   Clear
8:50 AM 80.6 °F 82.3 °F 64.4 °F 58% 30.04 in - NE 11.5 mph - N/A   Clear
9:00 AM 80 °F - 63 °F 46% 30.03 in 6 mi NE 11.5 mph - -  
9:20 AM 78.8 °F - 62.6 °F 57% 30.04 in - NE 11.5 mph - N/A   Clear
9:50 AM 82.4 °F 82.9 °F 60.8 °F 48% 30.01 in - NNE 15.0 mph - N/A   Clear
10:20 AM 80.6 °F 81.1 °F 59.0 °F 48% 30.04 in - NE 16.1 mph - N/A   Clear
10:50 AM 82.4 °F 83.4 °F 62.6 °F 51% 30.04 in - NNE 18.4 mph - N/A   Clear
11:20 AM 82.4 °F 82.9 °F 60.8 °F 48% 30.01 in - NE 15.0 mph - N/A   Clear
11:50 AM 82.4 °F 82.9 °F 60.8 °F 48% 30.01 in - NNE 15.0 mph - N/A   Clear
12:00 PM 82 °F - 60 °F 37% 30.02 in 6 mi NNE 15.0 mph - -  
12:20 PM 82.4 °F 82.5 °F 59.0 °F 45% 30.01 in - NNE 18.4 mph - N/A   Clear
12:50 PM 84.2 °F 83.0 °F 55.4 °F 37% 30.01 in - NNE 18.4 mph - N/A   Clear
1:20 PM 86.0 °F - 51.8 °F 31% 29.98 in - NE 16.1 mph - N/A   Clear
1:50 PM 87.8 °F - 48.2 °F 25% 29.98 in - NE 13.8 mph 25.3 mph N/A   Clear
2:20 PM 86.0 °F - 46.4 °F 25% 29.98 in - NE 19.6 mph - N/A   Clear
2:50 PM 84.2 °F - 48.2 °F 29% 29.95 in - ENE 17.3 mph 28.8 mph N/A   Clear
3:00 PM 85 °F - 44 °F 15% 29.96 in 6 mi ENE 17.3 mph - -  
3:20 PM 86.0 °F - 46.4 °F 25% 29.95 in - NE 18.4 mph - N/A   Clear
3:50 PM 84.2 °F - 44.6 °F 25% 29.95 in - ENE 19.6 mph - N/A   Clear
4:20 PM 84.2 °F - 46.4 °F 27% 29.92 in - NNE 17.3 mph - N/A   Clear
4:50 PM 84.2 °F - 46.4 °F 27% 29.92 in - NNE 17.3 mph - N/A   Clear
5:20 PM 82.4 °F - 44.6 °F 26% 29.92 in - NNE 17.3 mph 29.9 mph N/A   Clear
5:50 PM 82.4 °F - 46.4 °F 28% 29.92 in - NE 16.1 mph - N/A   Clear
6:00 PM 82 °F - 44 °F 16% 29.93 in 6 mi NE 16.1 mph - -  
6:20 PM 80.6 °F - 48.2 °F 32% 29.92 in - NE 16.1 mph - N/A   Clear
6:50 PM 80.6 °F - 51.8 °F 37% 29.92 in - NNE 15.0 mph - N/A   Clear
7:20 PM 78.8 °F - 55.4 °F 44% 29.92 in - NE 13.8 mph - N/A   Clear
7:50 PM 80.6 °F 80.8 °F 57.2 °F 45% 29.92 in - NE 11.5 mph - N/A   Clear
8:20 PM 78.8 °F - 57.2 °F 47% 29.92 in - NE 11.5 mph - N/A   Clear
8:50 PM 77.0 °F - 59.0 °F 54% 29.92 in - NE 12.7 mph - N/A   Clear
9:00 PM 77 °F - 59 °F 44% 29.92 in 6 mi NE 12.7 mph - -  
9:20 PM 77.0 °F - 60.8 °F 57% 29.92 in - NE 9.2 mph - N/A   Clear
9:50 PM 77.0 °F - 62.6 °F 61% 29.92 in - NE 8.1 mph - N/A   Clear
10:20 PM 75.2 °F - 62.6 °F 65% 29.92 in - NE 8.1 mph - N/A   Clear
10:50 PM 75.2 °F - 62.6 °F 65% 29.92 in - NE 9.2 mph - N/A   Clear
11:20 PM 75.2 °F - 64.4 °F 69% 29.89 in - NNE 10.4 mph - N/A   Clear
11:50 PM 75.2 °F - 64.4 °F 69% 29.89 in - NE 10.4 mph - N/A   Clear